Tracking 20945 objects as of 8-Jul-2020
HD Live streaming from Space Station
objects crossing your sky now

COSMOS 1304

Track COSMOS 1304 now!
10-day predictions
COSMOS 1304 is classified as:


NORAD ID: 12803
Int'l Code: 1981-087A
Perigee: 912.1 km
Apogee: 977.0 km
Inclination: 82.9 °
Period: 103.8 minutes
Semi major axis: 7315 km
RCS: 1.592 m2 (large)
Launch date: September 4, 1981
Source: Commonwealth of Independent States (former USSR) (CIS)
Launch site: PLESETSK MISSILE AND SPACE COMPLEX (PKMTR)
aabbcc
Your satellite tracking list
Your tracking list is empty




NASA's NSSDC Master Catalog

Two Line Element Set (TLE):
1 12803U 81087A   20189.73633633 +.00000043 +00000-0 +23695-4 0  9998
2 12803 082.9349 248.4454 0044413 288.1562 071.4767 13.87498825341904
Source of the keplerian elements: AFSPC